TimeCDT,TemperatureF,Dew PointF,Humidity,Sea Level PressureIn,VisibilityMPH,Wind Direction,Wind SpeedMPH,Gust SpeedMPH,PrecipitationIn,Events,Conditions,WindDirDegrees,DateUTC
12:15 AM,51.8,44.6,76,30.03,10.0,ESE,8.1,-,N/A,,Clear,120,2013-10-08 05:15:00
12:35 AM,51.8,44.6,76,30.03,10.0,SE,8.1,-,N/A,,Clear,130,2013-10-08 05:35:00
12:55 AM,51.8,44.6,76,30.03,10.0,SE,8.1,-,N/A,,Clear,130,2013-10-08 05:55:00
1:15 AM,51.8,44.6,76,30.03,10.0,SE,9.2,-,N/A,,Clear,140,2013-10-08 06:15:00
1:35 AM,51.8,44.6,76,30.03,10.0,SE,9.2,-,N/A,,Clear,140,2013-10-08 06:35:00
1:55 AM,51.8,44.6,76,30.03,10.0,SE,9.2,-,N/A,,Clear,140,2013-10-08 06:55:00
2:15 AM,50.0,44.6,82,30.04,10.0,SSE,9.2,-,N/A,,Clear,150,2013-10-08 07:15:00
2:35 AM,50.0,44.6,82,30.04,10.0,SE,6.9,-,N/A,,Clear,140,2013-10-08 07:35:00
2:55 AM,50.0,44.6,82,30.04,10.0,SE,8.1,-,N/A,,Clear,140,2013-10-08 07:55:00
3:15 AM,50.0,42.8,76,30.04,10.0,SSE,9.2,-,N/A,,Clear,150,2013-10-08 08:15:00
3:35 AM,50.0,42.8,76,30.04,10.0,SSE,8.1,-,N/A,,Clear,160,2013-10-08 08:35:00
3:55 AM,50.0,42.8,76,30.04,10.0,SSE,9.2,-,N/A,,Clear,150,2013-10-08 08:55:00
4:15 AM,50.0,42.8,76,30.03,-9999.0,SSE,9.2,-,N/A,,Clear,150,2013-10-08 09:15:00
4:35 AM,48.2,42.8,82,30.04,10.0,SSE,9.2,-,N/A,,Clear,150,2013-10-08 09:35:00
4:55 AM,48.2,42.8,82,30.04,10.0,SSE,9.2,-,N/A,,Clear,160,2013-10-08 09:55:00
5:15 AM,48.2,42.8,82,30.04,10.0,SSE,8.1,-,N/A,,Clear,160,2013-10-08 10:15:00
5:35 AM,48.2,42.8,82,30.04,10.0,SSE,8.1,-,N/A,,Clear,160,2013-10-08 10:35:00
5:55 AM,48.2,42.8,82,30.04,10.0,SSE,9.2,-,N/A,,Clear,160,2013-10-08 10:55:00
6:15 AM,48.2,42.8,82,30.05,10.0,South,9.2,-,N/A,,Clear,170,2013-10-08 11:15:00
6:35 AM,46.4,42.8,87,30.04,10.0,South,9.2,-,N/A,,Clear,170,2013-10-08 11:35:00
6:55 AM,48.2,42.8,82,30.04,10.0,SSE,9.2,-,N/A,,Clear,160,2013-10-08 11:55:00
7:15 AM,48.2,42.8,82,30.05,10.0,SSE,8.1,-,N/A,,Clear,160,2013-10-08 12:15:00
7:35 AM,46.4,42.8,87,30.05,10.0,SSE,8.1,-,N/A,,Clear,160,2013-10-08 12:35:00
7:55 AM,48.2,42.8,82,30.05,10.0,South,10.4,-,N/A,,Clear,170,2013-10-08 12:55:00
8:15 AM,48.2,42.8,82,30.05,10.0,South,9.2,-,N/A,,Clear,170,2013-10-08 13:15:00
8:35 AM,50.0,44.6,82,30.05,10.0,South,10.4,-,N/A,,Clear,170,2013-10-08 13:35:00
8:55 AM,51.8,44.6,76,30.06,10.0,South,11.5,-,N/A,,Clear,180,2013-10-08 13:55:00
9:15 AM,53.6,44.6,72,30.06,10.0,South,12.7,-,N/A,,Clear,190,2013-10-08 14:15:00
9:35 AM,55.4,46.4,72,30.06,10.0,South,12.7,-,N/A,,Clear,180,2013-10-08 14:35:00
9:55 AM,57.2,46.4,67,30.06,10.0,South,12.7,-,N/A,,Clear,180,2013-10-08 14:55:00
10:15 AM,60.8,46.4,59,30.05,10.0,South,13.8,-,N/A,,Clear,190,2013-10-08 15:15:00
10:35 AM,62.6,46.4,55,30.05,10.0,SSW,12.7,20.7,N/A,,Clear,200,2013-10-08 15:35:00
10:55 AM,64.4,46.4,52,30.04,10.0,SSW,15.0,21.9,N/A,,Clear,200,2013-10-08 15:55:00
11:15 AM,66.2,44.6,46,30.04,10.0,South,16.1,26.5,N/A,,Clear,190,2013-10-08 16:15:00
11:35 AM,68.0,44.6,43,30.03,10.0,South,21.9,28.8,N/A,,Clear,190,2013-10-08 16:35:00
11:55 AM,69.8,44.6,40,30.03,10.0,SSW,18.4,26.5,N/A,,Clear,200,2013-10-08 16:55:00
12:15 PM,69.8,42.8,38,30.03,10.0,SSW,21.9,28.8,N/A,,Clear,210,2013-10-08 17:15:00
12:35 PM,71.6,42.8,35,30.02,10.0,South,24.2,29.9,N/A,,Clear,190,2013-10-08 17:35:00
12:55 PM,71.6,42.8,35,30.01,10.0,South,25.3,-,N/A,,Clear,190,2013-10-08 17:55:00
1:15 PM,71.6,42.8,35,30.01,10.0,SSW,20.7,32.2,N/A,,Clear,200,2013-10-08 18:15:00
1:35 PM,73.4,42.8,33,30.00,10.0,SSW,24.2,29.9,N/A,,Clear,200,2013-10-08 18:35:00
1:55 PM,73.4,41.0,31,30.00,10.0,SSW,24.2,34.5,N/A,,Clear,210,2013-10-08 18:55:00
2:15 PM,75.2,41.0,29,29.98,10.0,SSW,26.5,34.5,N/A,,Clear,200,2013-10-08 19:15:00
2:35 PM,73.4,42.8,33,29.98,10.0,South,24.2,29.9,N/A,,Clear,190,2013-10-08 19:35:00
2:55 PM,75.2,42.8,31,29.98,10.0,SSW,24.2,35.7,N/A,,Clear,200,2013-10-08 19:55:00
3:15 PM,75.2,42.8,31,29.98,10.0,South,21.9,28.8,N/A,,Clear,190,2013-10-08 20:15:00
3:35 PM,75.2,42.8,31,29.97,10.0,South,20.7,33.4,N/A,,Clear,190,2013-10-08 20:35:00
3:55 PM,75.2,42.8,31,29.97,10.0,South,23.0,33.4,N/A,,Clear,190,2013-10-08 20:55:00
4:15 PM,75.2,42.8,31,29.97,10.0,SSW,21.9,31.1,N/A,,Clear,200,2013-10-08 21:15:00
4:35 PM,75.2,41.0,29,29.97,10.0,South,23.0,33.4,N/A,,Clear,180,2013-10-08 21:35:00
4:55 PM,75.2,42.8,31,29.97,10.0,South,17.3,26.5,N/A,,Clear,190,2013-10-08 21:55:00
5:15 PM,73.4,41.0,31,29.97,10.0,South,19.6,29.9,N/A,,Clear,190,2013-10-08 22:15:00
5:35 PM,73.4,41.0,31,29.97,10.0,South,21.9,31.1,N/A,,Clear,180,2013-10-08 22:35:00
5:55 PM,73.4,42.8,33,29.98,10.0,South,15.0,24.2,N/A,,Clear,180,2013-10-08 22:55:00
6:15 PM,71.6,42.8,35,29.98,10.0,South,16.1,21.9,N/A,,Clear,190,2013-10-08 23:15:00
6:35 PM,68.0,42.8,40,29.98,10.0,South,12.7,-,N/A,,Clear,170,2013-10-08 23:35:00
6:55 PM,68.0,42.8,40,29.98,10.0,South,12.7,-,N/A,,Clear,170,2013-10-08 23:55:00
7:15 PM,66.2,42.8,43,29.99,10.0,South,11.5,-,N/A,,Clear,180,2013-10-09 00:15:00
7:35 PM,64.4,42.8,45,30.00,10.0,South,11.5,-,N/A,,Clear,170,2013-10-09 00:35:00
7:55 PM,62.6,42.8,48,30.00,10.0,SSE,10.4,-,N/A,,Clear,160,2013-10-09 00:55:00
8:15 PM,62.6,42.8,48,30.00,10.0,South,11.5,-,N/A,,Clear,170,2013-10-09 01:15:00
8:35 PM,62.6,44.6,52,30.01,10.0,South,13.8,-,N/A,,Clear,170,2013-10-09 01:35:00
8:55 PM,62.6,42.8,48,30.01,10.0,South,13.8,-,N/A,,Clear,170,2013-10-09 01:55:00
9:15 PM,62.6,42.8,48,30.01,10.0,South,13.8,-,N/A,,Clear,170,2013-10-09 02:15:00
9:35 PM,60.8,44.6,55,30.02,10.0,South,12.7,-,N/A,,Clear,170,2013-10-09 02:35:00
9:55 PM,60.8,44.6,55,30.02,10.0,South,12.7,-,N/A,,Clear,170,2013-10-09 02:55:00
10:15 PM,60.8,44.6,55,30.03,10.0,South,13.8,-,N/A,,Clear,170,2013-10-09 03:15:00
10:35 PM,60.8,44.6,55,30.03,10.0,South,13.8,-,N/A,,Clear,170,2013-10-09 03:35:00
10:55 PM,60.8,44.6,55,30.03,10.0,South,12.7,-,N/A,,Clear,170,2013-10-09 03:55:00
11:15 PM,59.0,44.6,59,30.03,10.0,South,13.8,-,N/A,,Clear,170,2013-10-09 04:15:00
11:35 PM,59.0,44.6,59,30.04,10.0,South,12.7,-,N/A,,Clear,170,2013-10-09 04:35:00
11:55 PM,59.0,44.6,59,30.04,10.0,South,12.7,-,N/A,,Clear,180,2013-10-09 04:55:00